GW7255 Weather Reports


time (UTC)temp
F
wind
direction
speed
knots
gust
knots
rain 1hr
in
rain 24hr
in
rain mn
in
humidity
%
barometer
mb
20260507194541 63 72 7.0 12.2 0.00 0.00 0.00 30 1008.1
20260507193036 63 129 3.5 9.6 0.00 0.00 0.00 29 1008.4
20260507191525 62 16 4.3 9.6 0.00 0.00 0.00 29 1008.4
20260507190055 62 15 5.2 9.6 0.00 0.00 0.00 30 1008.6
20260507184545 61 59 4.3 11.3 0.00 0.00 0.00 28 1008.7
20260507183035 59 82 1.7 9.6 0.00 0.00 0.00 29 1008.7
20260507181527 59 65 6.1 13.0 0.00 0.00 0.00 28 1008.8
20260507180051 57 12 5.2 8.7 0.00 0.00 0.00 30 1009.0
20260507174543 57 86 7.0 9.6 0.00 0.00 0.00 30 1009.1
20260507173036 58 46 7.8 11.3 0.00 0.00 0.00 32 1009.2
20260507171527 58 82 7.0 12.2 0.00 0.00 0.00 32 1009.3
20260507170050 56 82 3.5 8.7 0.00 0.00 0.00 33 1009.6
20260507164542 55 71 3.5 8.7 0.00 0.00 0.00 33 1009.7
20260507163035 55 76 4.3 7.8 0.00 0.00 0.00 34 1009.6
20260507161526 54 84 1.7 6.1 0.00 0.00 0.00 34 1009.8
20260507160051 53 49 4.3 7.8 0.00 0.00 0.00 36 1009.9
20260507154544 53 41 7.8 11.3 0.00 0.00 0.00 36 1010.0
20260507153038 54 56 6.1 9.6 0.00 0.00 0.00 34 1009.9
20260507151528 55 13 4.3 9.6 0.00 0.00 0.00 31 1009.8
20260507150103 54 332 2.6 7.0 0.00 0.00 0.00 32 1009.9
20260507144550 52 266 2.6 4.3 0.00 0.00 0.00 34 1009.8
20260507143038 51 315 1.7 5.2 0.00 0.00 0.00 41 1009.9
20260507141527 49 298 4.3 7.0 0.00 0.00 0.00 39 1009.9
20260507140108 45 329 0.0 2.6 0.00 0.00 0.00 49 1009.9
20260507134545 43 295 0.0 1.7 0.00 0.00 0.00 54 1009.8
20260507133035 42 360 0.9 2.6 0.00 0.00 0.00 54 1009.7
20260507131535 40 279 1.7 2.6 0.00 0.00 0.00 60 1009.5
20260507130100 38 221 0.0 1.7 0.00 0.00 0.00 58 1009.4
20260507124547 38 211 1.7 3.5 0.00 0.00 0.00 57 1009.3
20260507123039 36 211 2.6 4.3 0.00 0.00 0.00 55 1009.1
20260507121529 36 209 0.9 1.7 0.00 0.00 0.00 53 1009.1
20260507120048 35 202 0.9 4.3 0.00 0.00 0.00 53 1009.1
20260507114539 36 203 0.9 3.5 0.00 0.00 0.00 52 1008.9
20260507113039 36 203 0.9 1.7 0.00 0.00 0.00 52 1008.8
20260507111526 35 360 2.6 3.5 0.00 0.00 0.00 53 1008.7
20260507110055 35 218 2.6 4.3 0.00 0.00 0.00 53 1008.5
20260507104544 37 218 2.6 3.5 0.00 0.00 0.00 51 1008.5
20260507103036 36 218 2.6 4.3 0.00 0.00 0.00 52 1008.3
20260507101537 35 218 2.6 5.2 0.00 0.00 0.00 58 1008.4
20260507100047 35 218 1.7 3.5 0.00 0.00 0.00 55 1008.3
20260507094548 34 218 2.6 4.3 0.00 0.00 0.00 57 1008.4
20260507093035 33 218 4.3 6.1 0.00 0.00 0.00 58 1008.4
20260507091549 33 221 2.6 4.3 0.00 0.00 0.00 57 1008.4
20260507090111 34 221 3.5 5.2 0.00 0.00 0.00 55 1008.5
20260507084542 35 221 1.7 3.5 0.00 0.00 0.00 52 1008.5
20260507083034 36 221 2.6 4.3 0.00 0.00 0.00 52 1008.3
20260507081534 37 223 2.6 6.1 0.00 0.00 0.00 50 1008.4
20260507080047 38 223 3.5 5.2 0.00 0.00 0.00 50 1008.5
20260507074540 38 145 1.7 2.6 0.00 0.00 0.00 48 1008.7
20260507073031 38 146 0.0 1.7 0.00 0.00 0.00 48 1008.7
20260507071525 39 145 0.9 2.6 0.00 0.00 0.00 46 1008.7
20260507070010 38 144 0.0 1.7 0.00 0.00 0.00 48 1008.7
20260507064555 37 145 0.0 2.6 0.00 0.00 0.00 48 1008.7
20260507063047 37 144 2.6 3.5 0.00 0.00 0.00 50 1008.8
20260507061538 38 144 1.7 3.5 0.00 0.00 0.00 49 1008.9
20260507060053 38 144 1.7 3.5 0.00 0.00 0.00 49 1008.9
20260507054546 39 144 2.6 3.5 0.00 0.00 0.00 48 1009.0
20260507053031 40 144 2.6 4.3 0.00 0.00 0.00 46 1009.1
20260507051525 41 144 0.9 2.6 0.00 0.00 0.00 45 1009.2
20260507050056 42 144 1.7 2.6 0.00 0.00 0.00 46 1009.2
20260507044549 43 144 1.7 3.5 0.00 0.00 0.00 45 1009.3
20260507043040 45 144 1.7 4.3 0.00 0.00 0.00 42 1009.6
20260507041527 46 144 2.6 4.3 0.00 0.00 0.00 39 1009.7
20260507040052 47 143 2.6 4.3 0.00 0.00 0.00 38 1010.0
20260507034546 47 144 0.9 3.5 0.00 0.00 0.00 38 1010.3
20260507033033 48 144 2.6 7.0 0.00 0.00 0.00 38 1010.4
20260507031526 48 140 5.2 8.7 0.00 0.00 0.00 37 1010.6
20260507030056 49 140 7.0 9.6 0.00 0.00 0.00 37 1010.5
20260507024544 49 134 7.0 7.8 0.00 0.00 0.00 36 1010.6
20260507023035 49 142 3.5 7.8 0.00 0.00 0.00 34 1010.7
20260507021525 50 129 6.1 8.7 0.00 0.00 0.00 34 1010.8
20260507020053 51 129 4.3 7.8 0.00 0.00 0.00 33 1011.0
20260507014553 52 127 4.3 11.3 0.00 0.00 0.00 31 1011.0
20260507013036 53 132 3.5 7.8 0.00 0.00 0.00 30 1011.1
20260507011530 54 231 1.7 3.5 0.00 0.00 0.00 27 1011.1
20260507010045 56 232 0.0 4.3 0.00 0.00 0.00 27 1011.3
20260507004536 56 229 1.7 4.3 0.00 0.00 0.00 26 1011.3
20260507003028 56 231 3.5 7.0 0.00 0.00 0.00 24 1011.3
20260507001521 56 247 6.1 13.0 0.00 0.00 0.00 24 1011.5
20260507000045 56 360 7.8 13.9 0.00 0.00 0.00 26 1011.5
20260506234537 57 292 9.6 15.6 0.00 0.00 0.00 24 1011.7
20260506233030 56 360 10.4 19.1 0.00 0.00 0.00 26 1011.9
20260506231522 57 360 13.9 21.7 0.00 0.00 0.00 25 1011.9
20260506230045 57 360 12.2 23.5 0.00 0.00 0.00 24 1012.3
20260506224538 56 315 11.3 18.2 0.00 0.00 0.00 25 1012.4
20260506223031 57 306 11.3 22.6 0.00 0.00 0.00 26 1012.5
20260506221525 56 360 15.6 21.7 0.00 0.00 0.00 25 1012.6
20260506220052 56 288 12.2 20.9 0.00 0.00 0.00 24 1013.1
20260506214545 56 248 12.2 20.0 0.00 0.00 0.00 24 1013.4
20260506213034 56 322 10.4 20.9 0.00 0.00 0.00 25 1013.7
20260506211522 55 337 14.8 21.7 0.00 0.00 0.00 26 1014.0
20260506210051 55 333 10.4 19.1 0.00 0.00 0.00 27 1014.3
20260506204541 55 360 15.6 21.7 0.00 0.00 0.00 29 1014.7
20260506203034 55 344 9.6 20.0 0.00 0.00 0.00 29 1014.9
20260506201539 54 341 10.4 18.2 0.00 0.00 0.00 31 1015.1
20260506200054 53 360 14.8 20.9 0.00 0.00 0.00 28 1015.4